[[[{"header":{"parameterUnit":"kt","parameterCategory":2,"dx":1,"dy":1,"la1":30.253999710083008,"la2":30.299108505249023,"lo1":-89.0895004272461,"lo2":-89.04439544677734,"nx":28,"ny":28,"refTime":"2022-10-28T21:00:00:Z","depth":0,"parameterNumber":1,"parameterNumberName":"U-component_of_WINDS"},"data":[-10.6663,-10.6886,-10.7013,-10.7329,-10.7498,-10.7737,-10.7865,-10.8044,-10.8221,-10.8526,-10.8726,-10.8882,-10.9114,-10.9388,-10.9615,-10.9681,-10.9768,-10.9753,-10.9833,-10.9778,-10.9779,-10.978,-10.9732,-10.977,-10.977,-10.9871,-10.9872,-10.9873,-10.6612,-10.6779,-10.6983,-10.7267,-10.7445,-10.7536,-10.7772,-10.7915,-10.8129,-10.8349,-10.8552,-10.8834,-10.9075,-10.9318,-10.9574,-10.9687,-10.9747,-10.9747,-10.974,-10.9775,-10.9721,-10.9669,-10.9695,-10.9695,-10.9695,-10.9695,-10.9695,-10.9695,-10.6553,-10.6682,-10.6928,-10.7152,-10.7331,-10.7522,-10.7669,-10.7856,-10.8061,-10.8338,-10.8456,-10.8703,-10.8951,-10.9325,-10.9484,-10.9684,-10.9708,-10.975,-10.9762,-10.9768,-10.9757,-10.9592,-10.9734,-10.9735,-10.9735,-10.9736,-10.9736,0,-10.655,-10.6647,-10.6852,-10.7094,-10.7265,-10.7468,-10.7676,-10.7771,-10.8029,-10.8188,-10.843,-10.8593,-10.8916,-10.9162,-10.9432,-10.9592,-10.9707,-10.9734,-10.9764,-10.9707,-10.9623,-10.9669,-10.9573,-10.9728,-10.9728,-10.9729,-10.9729,-10.9729,-10.6499,-10.6635,-10.6955,-10.7082,-10.7227,-10.7429,-10.7577,-10.7794,-10.7942,-10.8233,-10.8339,-10.8588,-10.8798,-10.917,-10.9393,-10.9637,-10.9695,-10.9739,-10.9733,-10.9674,-10.9696,-10.9684,-10.97,-10.9735,-10.9734,-10.9733,-10.9733,0,-10.6459,-10.6668,-10.692,-10.7226,-10.7308,-10.744,-10.7705,-10.7846,-10.8013,-10.8231,-10.8295,-10.856,-10.8797,-10.9015,-10.9331,-10.9438,-10.9667,-10.9719,-10.9583,-10.9604,-10.9665,-10.9655,-10.9828,-10.9862,-10.9827,-10.9827,-10.9827,0,-10.6498,-10.6668,-10.6971,-10.7106,-10.7304,-10.7516,-10.7708,-10.7871,-10.8086,-10.826,-10.8423,-10.8584,-10.8837,-10.9031,-10.9189,-10.9416,-10.9476,-10.9571,-10.961,-10.9555,-10.9543,-10.9637,-10.9634,-10.9696,-10.9695,-10.9694,-10.9693,0,-10.641,-10.6773,-10.6994,-10.7111,-10.7455,-10.7556,-10.7705,-10.7947,-10.8091,-10.8314,-10.841,-10.8655,-10.8789,-10.8979,-10.9178,-10.9165,-10.9461,-10.9485,-10.9558,-10.9553,-10.9609,-10.9602,-10.9703,-10.9692,-10.9691,-10.9691,-10.9691,0,-10.6473,-10.6688,-10.6977,-10.7268,-10.7355,-10.7502,-10.7755,-10.7931,-10.8176,-10.8283,-10.8461,-10.8595,-10.881,-10.8818,-10.912,-10.9046,-10.917,-10.9282,-10.9291,-10.9321,-10.9323,-10.9348,-10.9423,-10.9438,-10.9353,-10.935,-10.9348,0,-10.6316,-10.6664,-10.6847,-10.7118,-10.7308,-10.7477,-10.7646,-10.7856,-10.8013,-10.8201,-10.8378,-10.8591,-10.8643,-10.8739,-10.8861,-10.9051,-10.9148,-10.9046,-10.9318,-10.9325,-10.9244,-10.9317,-10.9271,-10.9382,-10.9315,-10.9319,-10.9321,0,-10.622,-10.6633,-10.6668,-10.681,-10.7119,-10.728,-10.7474,-10.773,-10.7844,-10.8064,-10.8233,-10.8539,-10.8591,-10.8748,-10.8884,-10.8998,-10.9089,-10.9038,-10.9048,-10.9039,-10.9317,-10.9273,-10.9291,-10.9156,-10.916,-10.9164,-10.9295,0,-10.6266,-10.6467,-10.6572,-10.6877,-10.7035,-10.7216,-10.7442,-10.7579,-10.7692,-10.7853,-10.8106,-10.8337,-10.8601,-10.8679,-10.8791,-10.8982,-10.8984,-10.9036,-10.9057,-10.9103,-10.9152,-10.9172,-10.8966,-10.8968,-10.897,-10.8971,0,0,-10.6063,-10.6354,-10.6548,-10.6741,-10.6886,-10.7056,-10.7231,-10.7393,-10.7715,-10.7813,-10.7828,-10.8289,-10.8476,-10.876,-10.8792,-10.8899,-10.8955,-10.8929,-10.908,-10.9091,-10.9102,-10.915,-10.9167,-10.8974,-10.8975,-10.8976,-10.8976,0,-10.6125,-10.6305,-10.6473,-10.6649,-10.6915,-10.7077,-10.7117,-10.7412,-10.7523,-10.7771,-10.791,-10.809,-10.8452,-10.8632,-10.8771,-10.8902,-10.8997,-10.8966,-10.8958,-10.9089,-10.9097,-10.9106,-10.9154,-10.9168,-10.898,-10.898,-10.898,0,-10.607,-10.6284,-10.6389,-10.6724,-10.69,-10.7092,-10.717,-10.7369,-10.7515,-10.7693,-10.7936,-10.8095,-10.8355,-10.8593,-10.8708,-10.8725,-10.9021,-10.8968,-10.8964,-10.8981,-10.9119,-10.9129,-10.9137,-10.9016,-10.9015,-10.9015,0,0,-10.6093,-10.628,-10.6577,-10.6754,-10.6855,-10.7097,-10.7222,-10.7346,-10.7572,-10.7662,-10.7867,-10.8085,-10.8299,-10.8435,-10.8647,-10.8877,-10.8949,-10.8963,-10.8961,-10.8959,-10.8974,-10.9111,-10.9121,-10.9012,-10.9011,-10.9011,0,0,-10.6105,-10.6455,-10.6527,-10.6759,-10.6968,-10.7275,-10.7376,-10.7472,-10.7685,-10.7689,-10.7911,-10.7979,-10.8206,-10.8357,-10.8288,-10.8659,-10.8676,-10.8697,-10.8551,-10.8553,-10.8551,-10.8509,-10.84,0,0,0,0,0,-10.6282,-10.6412,-10.6473,-10.6545,-10.697,-10.724,-10.7296,-10.748,-10.7488,-10.7564,-10.7751,-10.7845,-10.8366,-10.8311,-10.8381,-10.8454,-10.8971,-10.8978,-10.8985,-10.8852,-10.8851,-10.885,0,0,0,0,0,0,-10.6312,-10.6399,-10.6471,-10.6778,-10.6876,-10.7237,-10.7291,-10.7345,-10.7485,-10.7498,-10.7805,-10.7854,-10.8018,-10.8288,-10.8348,-10.8414,-10.8381,-10.8974,-10.898,-10.8985,-10.8852,-10.8851,-10.885,0,0,0,0,0,-10.6337,-10.6407,-10.7039,-10.6778,-10.6863,-10.7139,-10.7288,-10.7333,-10.7445,-10.7734,-10.7785,-10.7571,-10.8015,-10.8079,-10.8325,-10.8382,-10.834,-10.8362,-10.8978,-10.8983,-10.8987,-10.8851,0,0,0,0,0,0,-10.6355,-10.6453,-10.7061,-10.7093,-10.6742,-10.7122,-10.7188,-10.7322,-10.7675,-10.7727,-10.7509,-10.7516,-10.8015,-10.8065,-10.8113,-10.836,-10.8307,-10.8329,-10.8343,-10.8982,-10.8985,-10.8989,0,0,0,0,0,0,-10.6416,-10.6479,-10.7078,-10.7021,-10.7049,-10.7106,-10.7164,-10.74,-10.7677,-10.7431,-10.7448,-10.7508,-10.7943,-10.8055,-10.8093,-10.8453,-10.8282,-10.8303,-10.8318,-10.8327,-10.8985,-10.8988,0,0,0,0,0,0,-10.6446,-10.6501,-10.7014,-10.7035,-10.706,-10.7443,-10.7318,-10.7744,-10.7624,-10.7413,-10.7619,-10.7617,-10.7931,-10.7974,-10.8078,-10.8421,-10.8445,-10.8282,-10.8297,-10.8307,-10.8314,0,0,0,0,0,0,0,-10.6471,-10.6062,-10.6865,-10.7047,-10.7069,-10.7397,-10.7406,-10.7415,-10.7624,-10.7622,-10.762,-10.7618,-10.816,-10.8183,-10.8207,-10.8396,0,0,-10.828,-10.829,0,0,0,0,0,0,0,0,-10.6043,-10.6057,-10.6866,-10.6873,-10.688,-10.7398,-10.7406,-10.7413,-10.7623,-10.7622,-10.762,-10.7619,-10.8166,-10.8185,-10.8204,0,0,0,0,0,0,0,0,0,0,0,0,0,0,0,-10.6867,-10.6873,0,-10.7399,-10.7405,-10.7411,-10.7623,-10.7622,-10.762,-10.7619,-10.8171,-10.8187,-10.8203,0,0,0,0,0,0,0,0,0,0,0,0,0,0,0,0,0,0,0,0,0,0,0,0,0,0,0,0,0,0,0,0,0,0,0,0,0,0,0,0,0,0,0,0,0,0,0,0,0,0,0,0,0,0,0,0,0,0,0,0,0,0,0,0,0,0,0,0,0]}],[{"header":{"parameterUnit":"kt","parameterCategory":2,"dx":1,"dy":1,"la1":30.253999710083008,"la2":30.299108505249023,"lo1":-89.0895004272461,"lo2":-89.04439544677734,"nx":28,"ny":28,"refTime":"2022-10-28T21:00:00:Z","depth":0,"parameterNumber":2,"parameterNumberName":"V-component_of_WINDS"},"data":[9.3553,9.3579,9.356,9.3582,9.3568,9.3581,9.3579,9.3576,9.3567,9.3582,9.3587,9.357,9.3555,9.3558,9.3564,9.3556,9.3561,9.3588,9.3575,9.3472,9.3457,9.3442,9.3435,9.3588,9.3589,9.3684,9.3685,9.3686,9.3492,9.3478,9.3482,9.3473,9.3478,9.3442,9.3432,9.3439,9.3451,9.344,9.3442,9.3452,9.3458,9.3432,9.3435,9.345,9.3433,9.3452,9.3452,9.345,9.334,9.3332,9.3466,9.3466,9.3466,9.3466,9.3466,9.3466,9.3375,9.339,9.3372,9.3375,9.3364,9.3359,9.337,9.3347,9.3351,9.3348,9.3321,9.3334,9.3319,9.3309,9.33,9.3312,9.3286,9.33,9.3304,9.3309,9.332,9.3194,9.331,9.331,9.3309,9.3309,9.3309,0,9.3283,9.3265,9.3265,9.3261,9.3262,9.3255,9.3246,9.3252,9.3203,9.3208,9.3214,9.3214,9.3214,9.3218,9.3213,9.3199,9.3162,9.3153,9.3164,9.3179,9.3196,9.3192,9.3017,9.3149,9.3148,9.3147,9.3146,9.3146,9.3167,9.3185,9.3152,9.3155,9.3143,9.3148,9.3147,9.3102,9.3103,9.3084,9.31,9.3102,9.31,9.3113,9.3083,9.3083,9.3064,9.3119,9.3063,9.308,9.307,9.307,9.3074,9.313,9.3132,9.3134,9.3135,0,9.3106,9.3067,9.3086,9.3049,9.3041,9.3063,9.3033,9.3045,9.3018,9.3032,9.3032,9.299,9.2996,9.2956,9.2952,9.2932,9.2975,9.2955,9.2983,9.2977,9.3025,9.3023,9.3176,9.3196,9.3033,9.3035,9.3036,0,9.2992,9.3015,9.2957,9.297,9.2996,9.2947,9.2975,9.2953,9.2934,9.2944,9.2892,9.2903,9.2848,9.2855,9.2823,9.285,9.2848,9.2835,9.2827,9.2841,9.2843,9.284,9.2834,9.2802,9.2801,9.28,9.28,0,9.2901,9.2893,9.2913,9.2905,9.2865,9.2876,9.2861,9.2837,9.2834,9.2825,9.2824,9.2816,9.2812,9.2809,9.2769,9.2734,9.2798,9.2741,9.2785,9.2787,9.28,9.28,9.2947,9.2799,9.2798,9.2798,9.2798,0,9.2802,9.2791,9.2823,9.279,9.279,9.2801,9.279,9.279,9.2769,9.2749,9.274,9.2699,9.2714,9.2662,9.2684,9.2651,9.2652,9.2638,9.2641,9.264,9.2582,9.2674,9.2815,9.283,9.2642,9.264,9.2639,0,9.2711,9.273,9.2686,9.2717,9.272,9.2661,9.2673,9.2653,9.2627,9.2628,9.2598,9.2598,9.2549,9.2543,9.2559,9.2529,9.2573,9.2522,9.2528,9.2529,9.2539,9.2668,9.27,9.2789,9.2622,9.2624,9.2625,0,9.2634,9.258,9.2588,9.2577,9.2539,9.2539,9.2553,9.2539,9.2543,9.2522,9.2535,9.253,9.2495,9.2483,9.2446,9.2465,9.2542,9.2423,9.2422,9.2449,9.2607,9.2639,9.2654,9.2514,9.2516,9.2518,9.2611,0,9.2503,9.2503,9.2521,9.2492,9.2485,9.2498,9.2449,9.2449,9.2414,9.2384,9.2398,9.2365,9.235,9.2352,9.2316,9.2371,9.2356,9.2315,9.226,9.2344,9.2374,9.2386,9.2221,9.2219,9.2218,9.2216,0,0,9.2427,9.2425,9.237,9.2378,9.2369,9.2302,9.2322,9.2304,9.2269,9.2265,9.2234,9.2221,9.2194,9.2216,9.2238,9.223,9.2237,9.2206,9.2304,9.2314,9.2323,9.2356,9.2369,9.2213,9.2213,9.2212,9.2212,0,9.2367,9.2339,9.2356,9.2336,9.2302,9.2267,9.2272,9.2226,9.2206,9.2215,9.2159,9.216,9.2147,9.2128,9.2117,9.2203,9.216,9.2202,9.2267,9.2289,9.2301,9.2312,9.2347,9.236,9.2208,9.2208,9.2208,0,9.2285,9.225,9.2251,9.2221,9.2197,9.2198,9.2129,9.2131,9.2132,9.2054,9.2064,9.2038,9.2006,9.203,9.2038,9.201,9.2095,9.2055,9.2064,9.2064,9.2083,9.2097,9.2111,9.1939,9.1938,9.1937,0,0,9.224,9.2237,9.2182,9.2203,9.2193,9.2138,9.2132,9.2095,9.2066,9.2055,9.2018,9.1993,9.1986,9.1982,9.1971,9.2003,9.1994,9.2024,9.2037,9.2047,9.2053,9.2075,9.2089,9.1935,9.1935,9.1934,0,0,9.2218,9.2154,9.2123,9.214,9.2116,9.2061,9.2077,9.2037,9.2021,9.2013,9.1949,9.1939,9.196,9.1935,9.1905,9.195,9.1897,9.1902,9.1965,9.198,9.1993,9.1998,9.1827,0,0,0,0,0,9.2129,9.2163,9.2135,9.213,9.2087,9.2078,9.2072,9.2019,9.1985,9.1999,9.1963,9.1915,9.1907,9.1879,9.1875,9.1908,9.19,9.1906,9.1912,9.2,9.2017,9.2031,0,0,0,0,0,0,9.2126,9.212,9.2134,9.2082,9.2071,9.2076,9.2005,9.1992,9.1982,9.1973,9.1924,9.1913,9.1868,9.1877,9.1875,9.1907,9.1828,9.1902,9.1907,9.1912,9.2006,9.2019,9.2031,0,0,0,0,0,9.2124,9.2119,9.2064,9.2081,9.2072,9.2011,9.2003,9.1992,9.1983,9.1924,9.1912,9.1944,9.187,9.1864,9.1876,9.191,9.1829,9.1828,9.1906,9.191,9.1913,9.2012,0,0,0,0,0,0,9.2123,9.2109,9.2061,9.2056,9.2062,9.2009,9.1999,9.1992,9.1934,9.1922,9.1941,9.1935,9.1872,9.1867,9.1863,9.1914,9.183,9.183,9.1829,9.1909,9.1912,9.1915,0,0,0,0,0,0,9.2111,9.2105,9.2059,9.2038,9.2031,9.2009,9.1999,9.1999,9.1934,9.1953,9.1946,9.1939,9.1879,9.187,9.1866,9.1868,9.1831,9.183,9.183,9.183,9.1911,9.1914,0,0,0,0,0,0,9.2108,9.2103,9.2039,9.2033,9.2027,9.1972,9.2007,9.1966,9.1917,9.1957,9.1911,9.1908,9.1882,9.1878,9.1869,9.1872,9.1869,9.1831,9.1831,9.183,9.183,0,0,0,0,0,0,0,9.2105,9.215,9.2088,9.2029,9.2023,9.2014,9.2013,9.2012,9.1917,9.1914,9.1912,9.191,9.1835,9.1835,9.1834,9.1876,0,0,9.1831,9.1831,0,0,0,0,0,0,0,0,9.2151,9.215,9.2088,9.2087,9.2086,9.2014,9.2013,9.2012,9.1916,9.1914,9.1912,9.191,9.1835,9.1835,9.1834,0,0,0,0,0,0,0,0,0,0,0,0,0,0,0,9.2088,9.2087,0,9.2014,9.2013,9.2012,9.1916,9.1914,9.1913,9.1911,9.1835,9.1834,9.1834,0,0,0,0,0,0,0,0,0,0,0,0,0,0,0,0,0,0,0,0,0,0,0,0,0,0,0,0,0,0,0,0,0,0,0,0,0,0,0,0,0,0,0,0,0,0,0,0,0,0,0,0,0,0,0,0,0,0,0,0,0,0,0,0,0,0,0,0,0]}]]]